Torna al catalogo

IO-86

AttivoRadioamatoreLEO
NORAD 40931·PAYLOAD·🇮🇩 Indonesia

Lanciato Sep 28, 2015 da Satish Dhawan Space Centre

Loading…

Prossimi Passaggi (prossime 24 ore)

TLE

ObsoletoSource: Tim BRIN PR Teksat

Epoca: Aug 3, 2026, 07:32 UTC

1 40931U 00000    26215.31405093  .00000000  00000-0 -12415-2 0    07
2 40931   5.9978 192.1020 0013293 316.0159  40.6094 14.79250695 40639

Traccia IO-86 in tempo reale con AllMySat

Download on the App Store